Location: Newark
(42.8481°N, 0.4872°E)
Time: 18:05:18
(UTC+00:00)

Vanguard 1 - Pass Details

Date: 03 November 2020
Orbit: 650 x 3833 km, 34.2° (Epoch: 23 November)

Event Time Altitude Azimuth Distance (km) Brightness Sun altitude
Rises 11:16:04 0° 236° (SW) 6,603 14.6 31.6°
Reaches altitude 10° 11:19:59 10° 233° (SW) 5,917 14.5 31.7°
Maximum altitude 11:39:47 59° 160° (SSE) 4,152 14.5 31.9°
Drops below altitude 10° 12:01:48 10° 89° (E) 6,501 14.3 31.7°
Sets 12:06:20 0° 86° (E) 7,257 14.4 31.6°
